Location: Seven Kings
(51.5667°N, 0.1000°E)
Time: 14:56:20
(UTC+00:00)

ERS-2 - Pass Details

Date: 29 October 2020
Orbit: 493 x 497 km, 98.6° (Epoch: 29 November)

Event Time Altitude Azimuth Distance (km) Brightness Sun altitude
Rises 17:10:26 0° 22° (NNE) 2,590 5.4 -5.7°
Reaches altitude 10° 17:12:38 10° 31° (NNE) 1,703 4.4 -6.1°
Maximum altitude 17:16:02 35° 99° (E) 811 2.7 -6.6°
Drops below altitude 10° 17:19:24 10° 167° (SSE) 1,690 4.8 -7.1°
Sets 17:21:35 0° 176° (S) 2,567 5.9 -7.4°
